Home   Weather   Santa Clarita   Past weeks

Flag for USA Past Weather in Santa Clarita, California, USA — Yesterday and Last 2 Weeks

Now
57 °F

Clear.


Feels Like: 57 °F
Forecast: 53 / 78 °F
Wind: 3 mph from Southeast

Location: Van Nuys Airport

Current Time: Apr 24, 2017 at 4:54:26 am

Latest Report: Apr 24, 2017 at 3:51 am


Visibility: 10 mi

Pressure: 29.85 "Hg

Humidity: 78%

Dew Point: 50 °F

Location of Santa ClaritaLocation

Past Weather in Santa Clarita — Graph

°F

Santa Clarita Temperature Yesterday

Maximum temperature yesterday: 80 °F (at 12:51 pm)
Minimum temperature yesterday: 59 °F (at 11:51 pm)
Average temperature yesterday: 69 °F

High & Low Weather Summary for the Past Weeks

 TemperatureHumidityPressure
High93 °F (Apr 21, 2:51 pm)93% (Apr 19, 2:51 am)30.12 "Hg (Apr 19, 2:51 am)
Low48 °F (Apr 10, 6:51 am)7% (Apr 21, 2:51 pm)29.77 "Hg (Apr 23, 4:51 pm)
Average66 °F47%29.97 "Hg
* Reported Apr 9 2:51 am — Apr 24 2:51 am, Santa Clarita, Weather by CustomWeather, © 2017

Note: Actual official high and low records may vary slightly from our data, if they occured in-between our weather recording intervals... More about our weather records

Advertising

Santa Clarita Weather History for the Previous 24 Hours

Scroll right to see more
 ConditionsComfort  
Time TempWeatherWind HumidityBarometerVisibility
2:51 am
Mon, Apr 24
56 °FClear.No wind81%29.83 "Hg10 mi
1:51 am58 °FClear.5 mph75%29.84 "Hg10 mi
12:51 am58 °FClear.8 mph75%29.84 "Hg10 mi
11:51 pm
Sun, Apr 23
59 °FClear.3 mph72%29.85 "Hg10 mi
10:51 pm60 °FClear.8 mph69%29.84 "Hg10 mi
9:51 pm62 °FClear.5 mph67%29.84 "Hg10 mi
8:51 pm65 °FClear.7 mph61%29.81 "Hg10 mi
7:51 pm68 °FClear.9 mph51%29.79 "Hg10 mi
6:51 pm72 °FSunny.7 mph43%29.78 "Hg10 mi
5:51 pm75 °FSunny.10 mph40%29.78 "Hg10 mi
4:51 pm78 °FSunny.14 mph36%29.77 "Hg10 mi
3:51 pm79 °FSunny.12 mph32%29.78 "Hg10 mi
2:51 pm80 °FSunny.10 mph34%29.80 "Hg10 mi
1:51 pm80 °FSunny.15 mph34%29.80 "Hg10 mi
12:51 pm80 °FSunny.8 mph30%29.81 "Hg10 mi
11:51 am77 °FSunny.8 mph37%29.84 "Hg10 mi
10:51 am74 °FSunny.No wind41%29.84 "Hg10 mi
9:51 am68 °FSunny.No wind55%29.86 "Hg10 mi
8:51 am65 °FSunny.No wind63%29.86 "Hg10 mi
7:51 am62 °FSunny.7 mph70%29.85 "Hg10 mi
6:51 am60 °FSunny.5 mph75%29.83 "Hg10 mi
5:51 am61 °FClear.5 mph72%29.79 "Hg10 mi
4:51 am62 °FClear.3 mph70%29.79 "Hg10 mi
Weather by CustomWeather, © 2017

See weather overviewHow to use our weather pages